Probability
14 14 17 21 24 25 25 23 19 15 15 14 13 12 11 12 12 10 9 10 10 9 7 6 5 4 2 1 0 0 0 0 0 0 0 0 0 0 0 0 0 0 0
16 16 18 21 22 22 24 23 20 17 16 15 13 11 10 11 11 9 9 9 8 7 6 4 4 3 1 0 0 0 0 0 0 0 0 0 0 0 0 0 0 0 0
16 15 16 18 18 19 21 22 20 17 17 16 14 11 9 10 9 8 7 7 6 4 4 3 3 2 1 0 0 0 0 0 0 0 0 0 0 0 0 0 0 0 0
11 12 13 14 15 15 17 17 17 16 15 16 14 12 10 8 7 6 5 4 4 3 3 4 3 1 0 0 0 0 0 0 0 0 0 0 0 0 0 0 0 0 0
7 9 12 12 12 12 13 14 13 12 11 11 11 11 9 6 4 4 4 3 4 5 5 5 3 1 0 0 0 0 0 0 0 0 0 0 0 0 0 0 0 0 0
7 9 12 12 11 11 11 11 11 9 8 8 8 8 6 4 3 3 3 3 4 5 6 5 3 1 0 0 0 0 0 0 0 0 0 0 0 0 0 0 0 0 0
6 8 11 11 11 11 11 10 9 8 7 8 8 6 5 4 3 3 3 3 3 4 5 4 3 2 1 0 0 0 0 0 0 0 0 0 0 0 0 0 0 0 0
3 5 7 9 10 11 10 10 9 7 7 7 7 6 5 5 4 3 3 3 3 3 4 4 4 3 1 1 1 0 0 0 0 0 0 0 0 0 0 0 0 0 0
3 3 4 5 7 8 9 9 8 6 5 6 6 6 6 6 5 4 3 3 3 3 4 4 4 3 3 2 2 1 0 0 0 0 0 0 0 0 0 0 0 0 0
3 2 2 3 5 5 6 6 6 4 4 5 6 6 5 4 4 3 3 3 3 3 3 4 4 3 3 3 3 1 0 0 0 0 0 0 0 0 0 0 0 0 0
2 2 2 2 3 3 3 3 3 3 3 3 4 4 4 3 3 3 3 3 3 3 3 3 3 3 3 3 3 2 1 0 0 0 0 0 0 0 0 0 0 0 0
1 2 1 1 1 2 2 1 1 1 1 1 3 3 3 3 3 3 3 3 3 3 3 3 3 3 2 2 3 2 1 0 0 0 0 0 0 0 0 0 0 0 0
1 2 1 0 0 1 1 0 0 0 0 1 2 2 2 2 2 2 2 2 3 3 3 3 2 1 1 1 1 2 2 1 1 0 0 0 0 0 0 0 0 0 0
2 1 1 0 0 0 0 0 0 0 0 0 1 1 1 1 1 1 1 1 1 2 2 2 1 0 1 1 1 2 3 3 2 1 0 0 0 0 0 0 0 0 0
2 1 0 0 0 0 0 0 0 0 0 0 0 0 0 0 0 0 0 0 0 1 1 1 1 1 2 2 2 2 3 3 3 2 0 0 0 0 0 0 0 0 0
1 0 0 0 0 0 0 0 0 0 0 0 0 0 0 0 0 0 0 0 0 0 0 0 1 1 2 2 2 2 3 3 3 2 0 0 0 0 0 0 0 0 0
0 0 0 0 0 0 0 0 0 0 0 0 0 0 0 0 0 0 0 0 0 0 0 0 0 1 1 1 0 1 2 3 3 2 1 0 0 0 0 0 0 0 0
0 0 0 0 0 0 0 0 0 0 0 0 0 0 0 0 0 0 0 0 0 0 0 0 0 0 0 0 0 0 1 2 2 2 1 1 1 0 0 0 0 0 0
0 0 0 0 0 0 0 0 0 0 0 0 0 0 0 0 0 0 0 0 0 0 0 0 0 0 0 0 0 0 0 1 1 1 1 0 0 0 0 0 0 0 0
0 0 0 0 0 0 0 0 0 0 0 0 0 0 0 0 0 0 0 0 0 0 0 0 0 0 0 0 0 0 0 0 0 0 0 0 0 0 0 0 0 0 0
0 0 0 0 0 0 0 0 0 0 0 0 0 0 0 0 0 0 0 0 0 0 0 0 0 0 0 0 0 0 0 0 0 0 0 0 0 0 0 0 0 0 0
0 0 0 0 0 0 0 0 0 0 0 0 0 0 0 0 0 0 0 0 0 0 0 0 0 0 0 0 0 0 0 0 0 0 0 0 0 0 0 0 0 0 0
0 0 0 0 0 0 0 0 0 0 0 0 0 0 0 0 0 0 0 0 0 0 0 0 0 0 0 0 0 0 0 0 0 0 0 0 0 0 0 0 0 0 0
0 0 0 0 0 0 0 0 0 0 0 0 0 0 0 0 0 0 0 0 0 0 0 0 0 0 0 0 0 0 0 0 0 0 0 0 0 0 0 0 0 0 0
0 0 0 0 0 0 0 0 0 0 0 0 0 0 0 0 0 0 0 0 0 0 0 0 0 0 0 0 0 0 0 0 0 0 0 0 0 0 0 0 0 0 0
0 0 0 0 0 0 0 0 0 0 0 0 0 0 0 0 0 0 0 0 0 0 0 0 0 0 0 0 0 0 0 0 0 0 0 0 0 0 0 0 0 0 0
Wind_Speed
3 4 4 6 6 5 6 5 4 3 3 2 1 1 0 0 0 0 1 1 1 1 1 1 1 1 0 1 1 1 2 2 1 1 3 4 3 3 3 2 3 3 4
3 3 3 4 4 5 5 4 4 3 2 2 1 1 1 1 1 0 0 0 1 1 1 1 0 0 0 1 2 1 1 2 1 0 1 3 4 3 3 2 3 3 3
4 3 3 3 3 4 4 3 3 3 3 2 2 1 2 2 1 1 1 1 0 1 1 1 1 0 0 0 1 1 0 1 2 0 1 0 3 4 3 3 3 3 3
3 3 4 4 3 3 4 3 3 3 2 2 3 3 2 1 1 1 0 1 0 1 1 0 0 0 0 0 1 0 0 0 1 2 1 2 2 2 3 4 3 3 4
2 4 4 4 4 3 4 3 3 2 2 2 3 3 2 1 1 0 1 1 1 0 1 0 0 0 0 1 1 1 1 1 1 1 1 1 1 1 2 4 4 4 3
2 3 2 2 2 2 2 3 3 2 1 1 2 3 3 2 2 1 0 1 1 1 0 0 0 0 1 1 1 1 1 1 1 1 1 1 1 2 2 3 4 4 4
3 2 1 2 2 2 2 2 3 2 1 1 1 1 2 2 2 2 1 1 1 1 2 1 1 1 1 1 1 1 1 1 1 2 2 2 2 2 2 2 3 3 4
2 2 2 1 2 2 2 2 3 2 1 1 1 1 1 0 1 1 2 2 2 3 2 2 1 1 1 1 1 1 1 1 1 2 2 2 3 2 2 2 2 3 3
1 1 1 2 1 1 2 3 4 2 2 2 2 1 1 1 1 2 2 2 2 2 1 1 1 1 1 1 1 1 1 1 2 2 2 2 3 2 3 3 2 2 3
1 1 1 1 1 1 0 1 3 3 3 2 2 2 2 2 2 1 2 2 2 2 1 1 1 1 1 1 1 1 2 2 2 2 2 3 3 3 2 2 2 3 3
1 1 1 1 1 1 1 0 1 1 2 2 2 1 2 2 1 2 2 2 2 2 2 2 1 2 2 1 1 2 2 2 2 3 3 4 3 2 2 2 2 2 2
1 2 1 1 1 1 0 0 1 1 1 2 2 1 2 1 1 2 3 2 2 2 2 2 1 1 1 1 1 2 2 2 3 3 3 4 3 3 2 2 2 2 3
1 1 1 1 0 0 1 1 1 1 1 1 1 1 1 1 1 2 3 2 2 2 2 2 1 2 1 1 1 1 2 2 3 3 3 4 3 3 3 3 3 2 2
1 1 0 1 1 1 1 1 1 1 1 1 1 1 2 2 2 2 2 2 1 2 2 2 2 1 1 1 2 2 2 3 3 4 4 4 4 4 4 4 4 3 3
0 0 1 1 1 1 1 1 1 1 0 0 1 2 2 2 2 1 2 2 2 2 1 1 1 1 1 1 1 2 2 3 4 4 4 4 5 6 5 4 4 3 3
1 2 2 2 2 2 2 2 2 1 1 1 2 2 2 2 1 1 1 2 2 2 1 1 1 1 2 3 3 2 2 3 3 4 5 5 4 5 6 7 7 5 4
2 3 3 3 3 3 3 3 2 1 1 1 2 2 2 2 2 1 1 1 2 2 1 1 1 1 3 4 4 3 1 2 3 4 4 4 4 5 4 6 7 6 6
2 3 3 2 2 2 1 1 1 1 1 1 2 1 1 1 1 1 1 2 2 1 1 1 2 2 3 4 4 4 2 2 3 4 4 3 5 5 4 5 5 6 6
2 2 3 2 1 1 1 1 0 0 0 1 1 1 1 1 1 2 2 2 2 2 2 2 2 2 4 4 4 3 1 2 4 4 3 3 4 6 6 4 5 6 6
2 2 1 1 1 1 1 1 0 0 1 2 2 2 1 1 2 2 2 2 1 2 2 2 2 2 3 3 2 1 0 2 3 4 4 5 5 7 7 3 3 5 6
1 1 1 1 1 1 1 1 1 2 2 2 1 1 1 2 2 2 2 2 1 1 1 2 2 2 2 3 3 2 0 1 2 3 4 4 7 8 7 4 2 5 5
1 0 1 1 1 1 1 1 2 3 2 1 1 1 2 2 1 1 2 1 0 1 1 1 2 2 2 2 2 2 1 1 1 3 3 4 9 9 8 5 5 6 4
2 1 0 1 2 1 1 1 3 2 0 0 1 2 2 2 1 1 1 1 0 0 1 1 1 3 3 3 3 3 3 3 1 3 6 8 9 8 6 6 6 5 2
2 1 1 1 2 2 1 2 3 1 1 0 1 1 1 2 2 1 1 1 1 1 1 1 1 2 2 2 2 2 2 4 3 3 5 7 7 5 5 5 4 3 2
2 2 2 3 4 3 2 2 2 1 1 1 1 1 1 1 2 2 2 2 3 3 3 2 2 2 2 3 2 1 2 2 2 3 3 3 3 4 4 4 4 3 3
2 2 3 4 4 3 3 2 2 2 2 1 1 1 1 1 1 2 3 3 2 3 3 4 3 2 3 2 1 2 3 3 3 3 2 3 3 3 3 4 4 4 4
Wind_Direction
140 125 130 128 127 126 122 128 123 123 116 111 117 111 187 46 49 206 177 197 158 125 118 78 34 19 17 307 314 295 306 294 310 324 311 302 286 269 260 260 266 270 271
78 81 93 107 127 128 128 133 134 134 133 144 155 160 160 161 182 256 52 185 152 140 133 123 113 349 6 348 330 332 322 301 329 114 327 324 326 310 286 270 264 274 276
140 132 102 103 113 119 134 140 144 146 143 135 110 90 71 55 37 2 321 300 186 165 140 139 126 102 144 280 298 308 104 292 303 181 152 255 278 303 305 292 286 290 281
135 139 139 131 136 146 131 122 129 135 137 128 119 121 131 156 213 212 229 309 290 193 158 149 140 167 184 275 304 4 258 185 299 307 251 214 215 254 302 311 306 296 285
141 140 146 156 147 150 137 135 124 117 119 138 140 134 141 171 160 93 63 354 330 69 93 50 42 357 297 289 301 314 298 205 213 247 276 290 283 234 239 291 309 313 291
100 117 130 121 118 117 134 137 132 146 144 138 147 154 160 152 121 105 324 313 308 306 330 314 313 287 292 294 287 280 269 246 232 236 223 223 248 261 243 263 290 301 297
94 92 117 137 135 127 127 140 141 157 164 134 115 134 160 164 176 193 209 232 274 269 260 242 252 257 262 264 272 272 269 251 241 247 246 236 235 230 223 243 271 286 292
120 125 120 146 152 149 147 152 147 146 133 128 148 158 130 180 224 215 208 219 228 238 233 226 227 248 269 286 294 294 285 281 266 272 266 259 258 244 229 226 248 295 301
135 139 121 107 109 157 195 183 171 164 161 156 153 157 177 205 235 248 232 234 247 239 219 220 224 261 279 281 282 297 296 297 279 277 279 275 270 265 256 235 216 223 288
73 104 95 109 132 131 274 205 178 182 182 175 179 170 215 226 239 261 259 265 265 241 218 224 224 239 263 275 270 275 285 300 291 283 290 287 279 279 274 257 239 217 221
115 140 121 106 100 71 48 181 160 158 176 185 195 191 237 244 253 270 273 260 242 222 215 220 227 243 263 278 274 283 289 297 298 300 290 288 284 289 286 277 265 246 214
163 158 143 103 73 61 51 282 178 154 182 190 191 212 240 262 279 280 285 260 235 226 225 224 231 244 257 260 254 285 304 291 294 295 297 296 302 302 289 280 272 263 241
137 129 112 113 98 237 225 293 239 187 199 190 187 219 252 274 276 280 288 271 243 241 235 223 229 238 250 261 258 260 280 287 288 291 289 289 298 297 287 279 276 272 273
157 121 336 273 266 244 228 214 268 215 171 195 202 224 239 244 247 269 301 294 263 240 243 230 228 232 240 245 266 277 286 295 296 292 283 281 273 271 276 277 272 273 282
252 242 280 293 276 253 247 235 250 257 218 201 225 239 248 256 260 282 296 310 290 258 253 243 262 260 253 258 280 286 290 294 299 299 291 284 279 275 272 276 271 269 272
283 281 287 286 279 254 247 255 248 248 244 256 254 239 248 265 261 254 258 312 307 284 279 257 243 295 295 294 296 288 285 292 294 295 299 298 293 300 302 297 286 268 263
290 286 271 262 258 249 236 233 236 246 242 255 263 255 250 252 237 238 302 307 296 270 264 257 234 280 292 298 301 307 280 287 290 291 298 310 318 319 311 310 311 301 284
302 297 278 262 261 251 260 230 223 209 236 261 270 266 237 237 242 264 280 278 277 264 247 253 242 263 288 308 315 310 300 293 294 295 290 291 304 314 319 317 316 308 301
277 277 269 253 242 234 232 145 156 213 289 271 251 250 244 247 251 257 261 263 269 264 255 247 246 265 287 303 319 325 317 316 313 315 317 305 301 312 322 321 315 316 314
286 290 297 305 212 241 178 133 250 286 271 259 255 256 233 238 252 255 256 258 249 240 252 278 272 268 280 291 294 289 308 317 315 321 324 322 320 324 327 318 309 308 304
294 308 331 279 235 227 149 149 248 260 257 258 266 259 244 246 252 256 263 262 268 282 307 310 307 299 284 283 278 271 205 279 308 317 317 319 329 332 331 327 290 284 294
316 360 8 299 262 209 146 186 263 264 265 259 296 281 269 273 298 274 279 278 296 347 319 327 324 317 304 297 296 309 310 291 276 296 304 314 328 331 332 335 331 332 337
256 250 206 296 300 260 171 213 270 277 246 219 276 286 306 299 297 267 258 291 322 242 283 285 300 310 315 320 334 336 336 342 320 297 311 321 329 333 335 342 345 353 3
247 221 180 248 285 274 236 235 264 250 152 194 266 292 303 307 322 313 265 235 237 234 256 241 275 298 307 313 331 338 336 347 349 333 327 333 343 350 342 345 355 360 358
251 207 205 225 251 257 253 250 257 190 161 180 253 290 269 279 311 313 286 249 239 211 196 216 218 228 282 284 285 325 335 330 325 339 351 6 5 3 356 354 352 355 359
248 235 230 234 248 242 245 253 235 186 166 189 257 253 246 275 288 302 320 321 277 262 231 217 213 236 244 263 329 350 346 354 19 48 18 2 358 353 350 352 352 356 356